Location: Drocourt
(49.0571°N, 1.7669°E)
Time: 14:24:12
(UTC+00:00)

Vanguard 2 Rocket - Pass Details

Date: 17 April 2024
Orbit: 556 x 3304 km, 32.9° (Epoch: 22 May)

Event Time Altitude Azimuth Distance (km) Brightness Sun altitude
Rises 22:34:53 0° 235° (SW) 6,721 11.2 -27.7°
Reaches altitude 10° 22:39:23 10° 229° (SW) 5,939 10.8 -27.9°
Maximum altitude 22:56:59 44° 167° (SSE) 4,090 9.6 -28.8°
Drops below altitude 10° 23:13:26 10° 104° (ESE) 5,590 10.7 -29.4°
Sets 23:17:29 0° 98° (E) 6,314 11.0 -29.5°
